ACA801 EIDW-CYYZ

Flight info

Callsign ACA801
Flight time N/A
Altitude 36000
Route PELIG2J PELIG DCT DOGAL/M083F360 DCT 54N020W 53N030W 5130N04000W 50N050W DCT ELSIR/N0479F380 N412A MIILS DCT VILRO DCT SAVEX Q806 TUKIR RAGID6
Aircraft B77L/H-SDE1E2E3FGHIJ2J3J4J5M1RWXY/LB1D1

Departure

Time 2026-05-07 18:27
Airport Dublin Airport (EIDW)

Arrival

Time N/A
Airport Toronto Pearson International Airport (CYYZ)
Time Latitude Longitude Altitude Speed Heading
2026-05-07 17:43 53.42315 -6.24247 221 ft 0 kts 315°
2026-05-07 18:15 53.42307 -6.24233 220 ft 2 kts 315°
2026-05-07 18:15 53.42296 -6.24215 220 ft 2 kts 315°
2026-05-07 18:15 53.42285 -6.24197 220 ft 2 kts 315°
2026-05-07 18:16 53.42274 -6.24179 220 ft 2 kts 315°
2026-05-07 18:16 53.42264 -6.24162 219 ft 1 kts 315°
2026-05-07 18:16 53.42263 -6.24161 219 ft 0 kts 315°
2026-05-07 18:18 53.42268 -6.24170 220 ft 2 kts 303°
2026-05-07 18:18 53.42268 -6.24219 220 ft 6 kts 243°
2026-05-07 18:18 53.42227 -6.24281 219 ft 8 kts 218°
2026-05-07 18:18 53.42201 -6.24374 219 ft 9 kts 268°
2026-05-07 18:19 53.42199 -6.24488 220 ft 9 kts 268°
2026-05-07 18:19 53.42197 -6.24608 220 ft 10 kts 270°
2026-05-07 18:19 53.42209 -6.24727 220 ft 10 kts 307°
2026-05-07 18:19 53.42274 -6.24800 221 ft 12 kts 333°
2026-05-07 18:20 53.42359 -6.24862 221 ft 14 kts 338°
2026-05-07 18:20 53.42459 -6.24932 221 ft 16 kts 337°
2026-05-07 18:20 53.42571 -6.25016 221 ft 18 kts 335°
2026-05-07 18:20 53.42694 -6.25104 221 ft 20 kts 338°
2026-05-07 18:21 53.42835 -6.25167 220 ft 21 kts 347°
2026-05-07 18:21 53.42968 -6.25296 220 ft 22 kts 321°
2026-05-07 18:21 53.43082 -6.25465 221 ft 21 kts 331°
2026-05-07 18:21 53.43214 -6.25564 221 ft 20 kts 337°
2026-05-07 18:22 53.43329 -6.25639 222 ft 10 kts 341°
2026-05-07 18:22 53.43347 -6.25649 222 ft 7 kts 343°
2026-05-07 18:22 53.43405 -6.25544 221 ft 13 kts 88°
2026-05-07 18:22 53.43395 -6.25348 220 ft 18 kts 96°
2026-05-07 18:23 53.43385 -6.25136 219 ft 18 kts 94°
2026-05-07 18:23 53.43376 -6.24920 219 ft 18 kts 94°
2026-05-07 18:23 53.43363 -6.24716 221 ft 16 kts 98°
2026-05-07 18:23 53.43351 -6.24529 223 ft 15 kts 95°
2026-05-07 18:24 53.43342 -6.24348 225 ft 16 kts 95°
2026-05-07 18:24 53.43332 -6.24149 227 ft 16 kts 95°
2026-05-07 18:24 53.43325 -6.23968 228 ft 13 kts 82°
2026-05-07 18:24 53.43361 -6.23881 228 ft 7 kts 29°
2026-05-07 18:25 53.43416 -6.23853 227 ft 9 kts 13°
2026-05-07 18:25 53.43475 -6.23869 227 ft 9 kts 310°
2026-05-07 18:25 53.43493 -6.23982 227 ft 10 kts 275°
2026-05-07 18:25 53.43500 -6.24117 226 ft 14 kts 275°
2026-05-07 18:26 53.43516 -6.24459 222 ft 55 kts 275°
2026-05-07 18:26 53.43573 -6.25493 221 ft 118 kts 275°
2026-05-07 18:26 53.43668 -6.27181 247 ft 167 kts 276°
2026-05-07 18:26 53.43777 -6.29157 693 ft 173 kts 271°
2026-05-07 18:27 53.44009 -6.31192 1047 ft 186 kts 294°
2026-05-07 18:27 53.44864 -6.32770 1579 ft 189 kts 327°
2026-05-07 18:27 53.46051 -6.33870 1743 ft 199 kts 320°
2026-05-07 18:27 53.46721 -6.35005 1788 ft 207 kts 301°
2026-05-07 18:28 53.47734 -6.37974 1953 ft 228 kts 300°
2026-05-07 18:28 53.48666 -6.40247 2142 ft 245 kts 304°
2026-05-07 18:28 53.49704 -6.42653 2456 ft 255 kts 304°
2026-05-07 18:28 53.50723 -6.45101 2938 ft 256 kts 297°
2026-05-07 18:29 53.51277 -6.47898 3363 ft 256 kts 278°
2026-05-07 18:29 53.51565 -6.50829 3880 ft 256 kts 277°
2026-05-07 18:29 53.51844 -6.53825 4387 ft 257 kts 278°
2026-05-07 18:29 53.52119 -6.56776 4852 ft 259 kts 278°
2026-05-07 18:30 53.52394 -6.59749 5314 ft 261 kts 278°
2026-05-07 18:30 53.52674 -6.62778 5801 ft 261 kts 278°
2026-05-07 18:30 53.52953 -6.65797 6266 ft 263 kts 277°
2026-05-07 18:30 53.53229 -6.68803 6734 ft 264 kts 277°
2026-05-07 18:31 53.53511 -6.71877 7206 ft 266 kts 277°
2026-05-07 18:31 53.53791 -6.74947 7676 ft 267 kts 277°
2026-05-07 18:31 53.54074 -6.78048 8085 ft 270 kts 277°
2026-05-07 18:31 53.54356 -6.81153 8499 ft 272 kts 277°
2026-05-07 18:32 53.54642 -6.84318 8906 ft 274 kts 277°
2026-05-07 18:32 53.54926 -6.87458 9297 ft 277 kts 277°
2026-05-07 18:32 53.55215 -6.90675 9700 ft 278 kts 277°
2026-05-07 18:32 53.55506 -6.93919 10066 ft 282 kts 277°
2026-05-07 18:33 53.55803 -6.97242 10115 ft 297 kts 277°
2026-05-07 18:33 53.56115 -7.00754 10133 ft 313 kts 277°
2026-05-07 18:33 53.56446 -7.04502 10154 ft 328 kts 277°
2026-05-07 18:33 53.56790 -7.08398 10181 ft 343 kts 277°
2026-05-07 18:34 53.57143 -7.12408 10218 ft 356 kts 277°
2026-05-07 18:34 53.57508 -7.16571 10506 ft 361 kts 277°
2026-05-07 18:34 53.57872 -7.20737 10957 ft 362 kts 277°
2026-05-07 18:34 53.58240 -7.24953 11390 ft 364 kts 277°
2026-05-07 18:35 53.58606 -7.29174 11858 ft 366 kts 277°
2026-05-07 18:35 53.58975 -7.33446 12319 ft 369 kts 277°
2026-05-07 18:35 53.59343 -7.37727 12833 ft 370 kts 276°
2026-05-07 18:35 53.59713 -7.42047 13339 ft 373 kts 276°
2026-05-07 18:36 53.60079 -7.46345 13853 ft 375 kts 276°
2026-05-07 18:36 53.60450 -7.50719 14419 ft 378 kts 276°
2026-05-07 18:36 53.60817 -7.55068 14985 ft 380 kts 276°
2026-05-07 18:36 53.61191 -7.59513 15566 ft 383 kts 276°
2026-05-07 18:37 53.61567 -7.64009 16155 ft 385 kts 276°
2026-05-07 18:37 53.61937 -7.68451 16721 ft 388 kts 275°
2026-05-07 18:37 53.62312 -7.72978 17275 ft 391 kts 275°
2026-05-07 18:37 53.62687 -7.77512 17810 ft 394 kts 275°
2026-05-07 18:38 53.63065 -7.82126 18316 ft 397 kts 275°